This demonstration page uses our WeatherBlox Daily Observations layout. Learn more.

Left ArrowRight Arrow

Hourly Observations for December 4, 2021

Temp ( °F °C ) Dew Point ( °F °C ) Humidity (%) Winds ( mph kmh ) Pressure ( in mb ) Visibility ( mi km ) Precip ( " mm )
12:53 am 00:53 Cloudy 26 -3.3 18 -7.8 71 71 Calm 30.29 1026 10 16 0.00 0.00
1:53 am 01:53 Cloudy 27 -2.8 18 -7.8 69 69 E 5 7 30.27 1025 10 16 0.00 0.00
2:53 am 02:53 Cloudy 27 -2.8 17 -8.3 66 66 NE 5 7 30.24 1024 10 16 0.00 0.00
3:53 am 03:53 Cloudy 27 -2.8 16 -8.9 63 63 ENE 6 9 30.22 1023 10 16 0.00 0.00
4:53 am 04:53 Cloudy 27 -2.8 16 -8.9 63 63 SSE 5 7 30.19 1022 10 16 0.00 0.00
5:53 am 05:53 Cloudy 27 -2.8 17 -8.3 66 66 ENE 3 6 30.16 1022 10 16 0.00 0.00
6:53 am 06:53 Cloudy 27 -2.8 17 -8.3 66 66 ESE 3 6 30.15 1021 10 16 0.00 0.00
7:21 am 07:21 Cloudy with Light Snow 27 -2.8 17 -8.3 66 66 E 5 7 30.17 1022 4 6 0.00 0.00
7:37 am 07:37 Cloudy with Light Snow 26 -3.3 19 -7.2 75 75 ENE 5 7 30.18 1022 2 3 0.00 0.00
7:53 am 07:53 Cloudy with Light Snow 25 -3.9 21 -6.1 85 85 ENE 7 11 30.11 1020 2 2 0.01 0.25
8:24 am 08:24 Mostly Cloudy with Light Snow 25 -3.9 23 -5 92 92 ENE 7 11 30.14 1021 1 2 0.01 0.25
8:34 am 08:34 Mostly Cloudy with Light Snow 25 -3.9 23 -5 92 92 ENE 10 17 30.13 1020 1 1 0.02 0.51
8:53 am 08:53 Mostly Cloudy with Light Snow 26 -3.3 24 -4.4 92 92 ENE 13 20 30.07 1018 1 2 0.03 0.76
9:24 am 09:24 Mostly Cloudy with Light Snow 27 -2.8 25 -3.9 92 92 ENE 13 20 30.09 1019 1 1 0.01 0.25
9:53 am 09:53 Mostly Cloudy with Light Snow 28 -2.2 26 -3.3 92 92 ENE 14 22 30.03 1017 1 2 0.02 0.51
10:07 am 10:07 Mostly Cloudy with Light Snow 27 -2.8 26 -3.3 96 96 ENE 13 20 30.06 1018 1 1 0.01 0.25
10:53 am 10:53 Mostly Cloudy with Snow 27 -2.8 25 -3.9 92 92 E 16 26 29.99 1016 1 1 0.03 0.76
11:01 am 11:01 Mostly Cloudy with Snow 27 -2.8 25 -3.9 92 92 E 14 22 30.01 1016 1 1 0.00 0.00
11:53 am 11:53 Mostly Cloudy with Light Snow 28 -2.2 26 -3.3 92 92 E 16 26 29.91 1013 1 1 0.03 0.76
12:08 pm 12:08 Mostly Cloudy with Light Snow 28 -2.2 26 -3.3 92 92 E 15 24 29.92 1013 1 2 0.01 0.25
12:53 pm 12:53 Cloudy with Light Snow 28 -2.2 26 -3.3 92 92 E 16 26 29.85 1011 1 2 0.02 0.51
1:30 pm 13:30 Cloudy with Light Snow 28 -2.2 26 -3.3 92 92 E 18 30 29.83 1010 2 2 0.00 0.00
1:50 pm 13:50 Cloudy with Light Snow 28 -2 25 -4 86 86 E 17 28 29.82 1010 3 4 0.01 0.25
1:53 pm 13:53 Cloudy with Light Snow 28 -2.2 25 -3.9 88 88 E 16 26 29.78 1009 3 4 0.01 0.25
2:23 pm 14:23 Cloudy with Light Snow 28 -2.2 25 -3.9 88 88 E 13 20 29.80 1009 2 2 0.00 0.00
2:34 pm 14:34 Cloudy with Light Snow 28 -2 27 -3 93 93 E 13 20 29.79 1009 1 2 0.00 0.00
2:42 pm 14:42 Cloudy with Light Snow 28 -2.2 26 -3.3 92 92 ENE 12 19 29.79 1009 1 1 0.00 0.00
2:53 pm 14:53 Cloudy with Light Snow 28 -2.2 26 -3.3 92 92 ENE 13 20 29.75 1008 1 1 0.01 0.25
3:17 pm 15:17 Cloudy with Snow 27 -2.8 25 -3.9 92 92 ENE 12 19 29.80 1009 1 1 0.02 0.51
3:25 pm 15:25 Mostly Cloudy with Snow 27 -2.8 26 -3.3 96 96 ENE 10 17 29.80 1009 0 0 0.04 1.02
3:34 pm 15:34 Mostly Cloudy with Snow 27 -2.8 26 -3.3 96 96 ENE 7 11 29.80 1009 1 1 0.05 1.27
3:53 pm 15:53 Mostly Cloudy with Snow 27 -2.8 26 -3.3 96 96 ENE 7 11 29.76 1008 1 1 0.06 1.52
4:21 pm 16:21 Cloudy with Light Snow 27 -2.8 26 -3.3 96 96 ENE 5 7 29.81 1009 1 2 0.02 0.51
4:28 pm 16:28 Cloudy with Light Snow 27 -2.8 26 -3.3 96 96 ENE 5 7 29.81 1009 2 2 0.02 0.51
4:49 pm 16:49 Cloudy with Light Snow 27 -3 27 -3 100 100 ENE 5 7 29.80 1009 1 2 0.03 0.76
4:53 pm 16:53 Cloudy with Light Snow 27 -2.8 26 -3.3 96 96 NE 3 6 29.76 1008 1 2 0.03 0.76
4:57 pm 16:57 Cloudy with Light Snow 27 -2.8 26 -3.3 96 96 NNE 3 6 29.80 1009 2 3 0.00 0.00
5:05 pm 17:05 Cloudy with Light Snow 27 -2.8 25 -3.9 92 92 Calm 29.80 1009 5 8 0.00 0.00
5:15 pm 17:15 Cloudy with Light Snow 27 -2.8 25 -3.9 92 92 Calm 29.81 1009 5 8 0.00 0.00
5:53 pm 17:53 Cloudy with Light Snow 27 -2.8 25 -3.9 92 92 W 7 11 29.78 1008 2 3 0.00 0.00
6:08 pm 18:08 Cloudy with Light Snow 27 -3 25 -4 93 93 W 7 11 29.82 1010 4 6 0.00 0.00
6:53 pm 18:53 Cloudy with Light Snow 26 -3.3 25 -3.9 96 96 SW 13 20 29.76 1008 9 14 0.01 0.25
7:53 pm 19:53 Clear 23 -5 21 -6.1 92 92 W 12 19 29.80 1009 10 16 0.00 0.00
8:53 pm 20:53 Clear 20 -6.7 18 -7.8 92 92 W 10 17 29.83 1010 10 16 0.00 0.00
9:53 pm 21:53 Clear 19 -7.2 16 -8.9 88 88 WSW 12 19 29.85 1011 10 16 0.00 0.00
10:53 pm 22:53 Clear 22 -5.6 19 -7.2 89 89 WNW 15 24 29.86 1011 10 16 0.00 0.00
11:53 pm 23:53 Clear 21 -6.1 19 -7.2 92 92 WNW 12 19 29.88 1012 10 16 0.00 0.00

Powered by AerisWeather